EW2724 Weather Reports


time (UTC)temp
C
wind
direction
speed
KPH
gust
KPH
rain 1hr
cm
rain 24hr
cm
rain mn
cm
humidity
%
barometer
mb
20260503224527 19 283 0.0 1.6 0.00 0.00 0.00 41 1016.4
20260503223024 19 271 0.0 1.6 0.00 0.00 0.00 38 1016.4
20260503221526 19 256 0.0 4.8 0.00 0.00 0.00 38 1016.4
20260503220026 19 281 0.0 6.4 0.00 0.00 0.00 37 1016.5
20260503214518 20 264 1.6 6.4 0.00 0.00 0.00 39 1016.6
20260503213024 20 309 0.0 6.4 0.00 0.00 0.00 38 1016.5
20260503211525 20 271 0.0 4.8 0.00 0.00 0.00 38 1016.6
20260503210028 19 299 0.0 8.0 0.00 0.00 0.00 40 1016.7
20260503204528 20 256 0.0 9.7 0.00 0.00 0.00 38 1016.8
20260503203029 20 228 1.6 14.5 0.00 0.00 0.00 35 1017.2
20260503201524 20 252 1.6 4.8 0.00 0.00 0.00 37 1017.5
20260503200028 20 284 3.2 8.0 0.00 0.00 0.00 35 1017.8
20260503194530 19 72 0.0 6.4 0.00 0.00 0.00 38 1017.9
20260503193030 19 191 0.0 9.7 0.00 0.00 0.00 38 1018.1
20260503191520 18 243 3.2 9.7 0.00 0.00 0.00 38 1018.2
20260503190026 18 74 1.6 11.3 0.00 0.00 0.00 37 1018.4
20260503184526 18 258 6.4 9.7 0.00 0.00 0.00 36 1018.7
20260503183029 18 276 1.6 8.0 0.00 0.00 0.00 38 1018.6
20260503181529 17 104 1.6 4.8 0.00 0.00 0.00 38 1018.8
20260503180006 17 237 3.2 6.4 0.00 0.00 0.00 38 1019.1
20260503174508 17 334 0.0 8.0 0.00 0.00 0.00 41 1019.1
20260503173011 17 238 8.0 12.9 0.00 0.00 0.00 39 1019.3
20260503171515 17 254 1.6 8.0 0.00 0.00 0.00 43 1019.7
20260503081506 7 28 0.0 0.0 0.00 0.00 0.00 75 1017.9
20260503071511 7 28 0.0 0.0 0.00 0.00 0.00 78 1017.2
20260503054521 8 28 0.0 0.0 0.00 0.00 0.00 69 1016.9
20260503053014 8 28 0.0 0.0 0.00 0.00 0.00 73 1017.0
20260503051518 8 28 0.0 0.0 0.00 0.00 0.00 70 1017.0
20260503050005 8 28 0.0 0.0 0.00 0.00 0.00 71 1017.0
20260503044510 9 28 0.0 0.0 0.00 0.00 0.00 71 1016.8
20260503043030 9 28 0.0 0.0 0.00 0.00 0.00 67 1016.6
20260503041518 10 28 0.0 0.0 0.00 0.00 0.00 68 1016.6
20260503040019 10 28 0.0 0.0 0.00 0.00 0.00 66 1016.3
20260503034508 11 28 0.0 0.0 0.00 0.00 0.00 66 1016.1
20260503033014 12 28 0.0 0.0 0.00 0.00 0.00 58 1016.0
20260503031524 12 28 0.0 0.0 0.00 0.00 0.00 53 1016.0
20260503030020 13 28 0.0 0.0 0.00 0.00 0.00 52 1015.9
20260503024521 13 21 0.0 0.0 0.00 0.00 0.00 54 1015.8
20260503023011 13 20 0.0 0.0 0.00 0.00 0.00 57 1015.7
20260503021512 13 20 0.0 0.0 0.00 0.00 0.00 58 1015.6
20260503020018 13 20 0.0 0.0 0.00 0.00 0.00 60 1015.5
20260503014522 13 82 0.0 1.6 0.00 0.00 0.00 65 1015.2
20260503013024 13 82 0.0 1.6 0.00 0.00 0.00 68 1014.9
20260503011507 13 82 0.0 1.6 0.00 0.00 0.00 75 1014.3
20260503010023 13 82 0.0 0.0 0.00 0.00 0.00 75 1014.1
20260503004505 13 82 0.0 0.0 0.00 0.00 0.00 73 1013.8
20260503003004 14 82 0.0 0.0 0.00 0.00 0.00 74 1013.7
20260503001506 14 82 0.0 0.0 0.00 0.00 0.00 73 1013.5
20260503000031 14 82 0.0 0.0 0.00 0.00 0.00 73 1013.2
20260502234516 15 118 0.0 0.0 0.00 0.00 0.00 70 1012.9
20260502233003 15 118 0.0 0.0 0.00 0.00 0.00 66 1012.5
20260502231504 15 118 0.0 0.0 0.00 0.00 0.00 65 1012.4
20260502230010 15 118 0.0 1.6 0.00 0.00 0.00 63 1012.3